Simultaneous Nadir Overpasses (SNOs) Predictions

Prediction of SNOs between AQUA and METOP-C Satellite Orbit:

Table of predicted SNOs for the next 14.0 days since TLE Epoch: 11/6/2021
Index Date (AQUA) Time (AQUA) Lat,Lon (AQUA) SZA (AQUA ) Date (METOP-C) Time (METOP-C) Lat,Lon (METOP-C) SZA (METOP-C ) Distance(km) Time Diff (sec)
1 11/06/2021 06:14:45 73.58, 81.06 89.55 11/06/2021 06:13:33 73.50, 80.38 89.48 23.17 72
2 11/06/2021 07:04:14 -73.77,-111.71 90.25 11/06/2021 07:04:10 -73.78,-111.66 90.24 1.94 4
3 11/06/2021 07:53:42 73.83, 55.78 89.83 11/06/2021 07:54:47 73.83, 55.81 89.82 0.86 65
4 11/09/2021 01:49:03 73.70, 147.23 90.50 11/09/2021 01:47:52 73.68, 147.19 90.47 3.21 71
5 11/09/2021 02:38:30 -73.79, -45.31 89.41 11/09/2021 02:38:32 -73.80, -45.20 89.40 3.89 2
6 11/09/2021 03:27:59 73.85, 122.17 90.67 11/09/2021 03:29:10 73.86, 122.28 90.67 3.14 71
7 11/11/2021 21:23:19 73.69,-146.31 91.27 11/11/2021 21:22:15 73.70,-146.35 91.28 1.70 64
8 11/11/2021 22:12:46 -73.77, 21.16 88.65 11/11/2021 22:12:56 -73.77, 21.13 88.65 0.90 10
9 11/11/2021 23:02:19 74.05,-171.83 91.65 11/11/2021 23:03:30 74.02,-170.90 91.62 28.29 71
10 11/14/2021 16:57:35 73.69, -79.88 92.02 11/14/2021 16:56:38 73.71, -79.91 92.04 2.29 57
11 11/14/2021 17:47:02 -73.77, 87.59 87.90 11/14/2021 17:47:19 -73.78, 87.57 87.89 0.95 17
12 11/14/2021 18:36:40 74.31,-106.00 92.67 11/14/2021 18:37:47 74.33,-103.71 92.67 68.78 67
13 11/17/2021 12:31:50 73.72, -13.49 92.74 11/17/2021 12:31:00 73.72, -13.47 92.75 1.05 50
14 11/17/2021 13:21:17 -73.79, 153.99 87.18 11/17/2021 13:21:41 -73.78, 154.00 87.19 1.03 24



Historial Predications of SNOs between AQUA and METOP-C
